DH6PF-10 Weather Reports


time (UTC)temp
F
wind
direction
speed
knots
gust
knots
rain 1hr
in
rain 24hr
in
rain mn
in
humidity
%
barometer
mb
20260507041746 45 108 0.0 0.0 0.00 0.00 0.00 99 1004.0
20260507040747 45 66 0.0 0.0 0.00 0.00 0.00 99 1004.0
20260507035746 45 66 0.0 0.0 0.00 0.00 0.00 99 1004.0
20260507034747 45 66 0.0 0.0 0.00 0.00 0.00 99 1004.0
20260507033747 45 126 0.0 0.0 0.00 0.00 0.00 99 1003.0
20260507032747 45 96 0.0 0.0 0.00 0.00 0.00 99 1003.0
20260507031746 45 84 0.0 0.0 0.00 0.00 0.00 99 1003.0
20260507030746 45 156 0.0 0.0 0.00 0.00 0.00 99 1003.0
20260507025747 45 126 0.0 0.0 0.00 0.00 0.00 99 1003.0
20260507024747 46 90 0.0 0.0 0.00 0.00 0.00 99 1003.0
20260507023746 46 78 0.9 0.9 0.00 0.00 0.00 99 1003.0
20260507022746 46 84 2.6 3.5 0.00 0.00 0.00 99 1003.0
20260507021747 46 102 1.7 1.7 0.00 0.00 0.00 99 1003.0
20260507020747 46 108 2.6 2.6 0.00 0.00 0.00 99 1003.0
20260507015747 46 114 1.7 1.7 0.00 0.00 0.00 99 1003.0
20260507014747 46 108 0.0 0.0 0.00 0.00 0.00 99 1003.0
20260507013747 46 12 0.0 0.0 0.00 0.00 0.00 99 1003.0
20260507012747 46 84 0.0 0.0 0.00 0.00 0.00 99 1003.0
20260507011746 46 198 0.0 0.0 0.00 0.00 0.00 99 1003.0
20260507010747 46 102 0.0 0.0 0.00 0.00 0.00 99 1003.0
20260507005746 46 84 0.9 0.9 0.00 0.00 0.00 99 1002.0
20260507004747 46 108 1.7 1.7 0.00 0.00 0.00 99 1002.0
20260507003746 46 96 3.5 3.5 0.00 0.00 0.00 99 1003.0
20260507002746 46 30 0.0 0.0 0.00 0.00 0.00 99 1002.0
20260507001746 46 132 0.0 0.0 0.00 0.00 0.00 99 1002.0
20260507000747 46 60 0.0 0.0 0.00 0.00 0.00 99 1002.0
20260506235746 46 216 0.0 0.0 0.00 0.00 0.00 99 1002.0
20260506234746 47 114 1.7 1.7 0.00 0.00 0.00 99 1002.0
20260506233747 47 90 0.0 0.0 0.00 0.00 0.00 99 1002.0
20260506232747 47 108 0.0 0.0 0.00 0.00 0.00 99 1002.0
20260506231746 47 48 2.6 2.6 0.00 0.00 0.00 99 1002.0
20260506230747 47 96 1.7 1.7 0.00 0.00 0.00 99 1002.0
20260506225746 47 90 0.0 0.0 0.00 0.00 0.00 99 1002.0
20260506224747 47 114 0.0 0.0 0.00 0.00 0.00 99 1002.0
20260506223746 47 78 0.0 0.0 0.00 0.00 0.00 99 1002.0
20260506222746 47 66 0.0 0.0 0.00 0.00 0.00 99 1002.0
20260506221746 47 354 0.0 0.0 0.00 0.00 0.00 99 1002.0
20260506220746 47 90 0.0 0.0 0.00 0.00 0.00 99 1002.0
20260506215746 47 126 0.0 0.0 0.00 0.00 0.00 99 1002.0
20260506214746 47 114 0.0 0.0 0.00 0.00 0.00 99 1002.0
20260506213746 47 78 0.0 0.0 0.00 0.00 0.00 99 1001.0
20260506212746 47 90 0.0 0.0 0.00 0.00 0.00 99 1002.0
20260506211746 47 60 1.7 1.7 0.00 0.00 0.00 99 1001.0
20260506210746 47 114 0.0 0.0 0.00 0.00 0.00 99 1001.0
20260506205746 47 114 0.0 0.0 0.00 0.00 0.00 99 1001.0
20260506204746 47 96 0.0 0.0 0.00 0.00 0.00 99 1001.0
20260506203746 47 48 0.0 0.0 0.00 0.00 0.00 99 1001.0
20260506202746 47 42 1.7 1.7 0.00 0.00 0.00 99 1001.0
20260506201746 47 132 0.0 0.0 0.00 0.00 0.00 99 1001.0
20260506200746 47 78 0.0 0.0 0.00 0.00 0.00 99 1001.0
20260506195746 47 72 1.7 1.7 0.00 0.00 0.00 99 1001.0
20260506194746 47 126 0.0 0.0 0.00 0.00 0.00 99 1001.0
20260506193746 47 66 0.0 0.0 0.00 0.00 0.00 99 1001.0
20260506192746 47 108 0.9 0.9 0.00 0.00 0.00 99 1001.0
20260506191746 47 102 0.0 0.0 0.00 0.00 0.00 99 1001.0
20260506190746 47 78 0.0 0.0 0.00 0.00 0.00 99 1001.0
20260506185746 47 30 0.0 0.0 0.00 0.00 0.00 99 1001.0
20260506184746 47 78 0.0 0.0 0.00 0.00 0.00 99 1000.0
20260506183746 47 258 1.7 1.7 0.00 0.00 0.00 99 1000.0
20260506182746 47 132 0.0 0.0 0.00 0.00 0.00 99 1000.0
20260506181746 47 90 1.7 1.7 0.00 0.00 0.00 99 1000.0
20260506180746 47 192 0.9 0.9 0.00 0.00 0.00 99 1000.0
20260506175746 47 36 0.0 0.0 0.00 0.00 0.00 99 1000.0
20260506174746 47 336 0.0 0.0 0.00 0.00 0.00 99 1000.0
20260506173746 47 96 0.0 0.0 0.00 0.00 0.00 99 1000.0
20260506172746 47 348 2.6 2.6 0.00 0.00 0.00 99 1000.0
20260506171746 48 78 0.0 0.0 0.00 0.00 0.00 99 1000.0
20260506170746 48 66 0.0 0.0 0.00 0.00 0.00 99 1000.0
20260506165746 48 114 0.0 0.0 0.00 0.00 0.00 99 999.0
20260506164746 48 96 2.6 2.6 0.00 0.00 0.00 99 1000.0
20260506163746 48 132 0.0 0.0 0.00 0.00 0.00 99 999.0
20260506162746 48 102 0.0 0.0 0.00 0.00 0.00 99 999.0
20260506161747 48 48 0.9 0.9 0.00 0.00 0.00 99 999.0
20260506160746 48 204 1.7 1.7 0.00 0.00 0.00 99 999.0
20260506155746 49 60 0.0 0.0 0.00 0.00 0.00 99 999.0
20260506154746 49 126 0.0 0.0 0.00 0.00 0.00 99 999.0
20260506153746 49 42 3.5 3.5 0.00 0.00 0.00 99 999.0
20260506152746 49 246 1.7 1.7 0.00 0.00 0.00 99 999.0
20260506151746 49 42 0.0 0.0 0.00 0.00 0.00 99 999.0
20260506150746 49 96 0.0 0.0 0.00 0.00 0.00 99 999.0
20260506145746 49 54 0.0 0.0 0.00 0.00 0.00 99 999.0
20260506144746 49 78 1.7 1.7 0.00 0.00 0.00 99 999.0
20260506143746 49 120 0.0 0.0 0.00 0.00 0.00 99 999.0
20260506142746 49 144 0.0 0.0 0.00 0.00 0.00 99 999.0
20260506141746 50 174 1.7 1.7 0.00 0.00 0.00 99 999.0
20260506140746 49 318 1.7 1.7 0.00 0.00 0.00 99 999.0
20260506135746 49 42 0.0 0.0 0.00 0.00 0.00 99 998.0
20260506134746 50 114 3.5 3.5 0.00 0.00 0.00 99 998.0
20260506133746 50 90 2.6 2.6 0.00 0.00 0.00 99 999.0
20260506132746 50 60 1.7 1.7 0.00 0.00 0.00 99 998.0
20260506131746 50 78 0.0 0.0 0.00 0.00 0.00 99 999.0
20260506130746 50 102 0.9 0.9 0.00 0.00 0.00 99 998.0
20260506125746 50 84 0.0 0.0 0.00 0.00 0.00 99 998.0
20260506124746 50 60 2.6 2.6 0.00 0.00 0.00 99 998.0
20260506123746 50 173 0.0 0.0 0.00 0.00 0.00 99 998.0
20260506122746 50 114 1.7 1.7 0.00 0.00 0.00 99 998.0
20260506121746 50 120 1.7 1.7 0.00 0.00 0.00 99 998.0
20260506120746 50 152 1.7 1.7 0.00 0.00 0.00 99 998.0
20260506115746 50 282 2.6 2.6 0.00 0.00 0.00 99 998.0
20260506114746 50 102 2.6 2.6 0.00 0.00 0.00 99 998.0
20260506113746 51 102 0.0 0.0 0.00 0.00 0.00 99 998.0
20260506112746 51 156 0.9 0.9 0.00 0.00 0.00 99 998.0
20260506111746 51 72 1.7 1.7 0.00 0.00 0.00 99 998.0
20260506110746 51 54 0.0 0.0 0.00 0.00 0.00 99 998.0
20260506105746 51 210 0.0 0.0 0.00 0.00 0.00 99 998.0
20260506104746 51 90 0.9 0.9 0.00 0.00 0.00 99 998.0
20260506103746 51 84 0.0 0.0 0.00 0.00 0.00 99 998.0
20260506102746 51 180 0.0 0.0 0.00 0.00 0.00 99 998.0
20260506101746 51 60 0.0 0.0 0.00 0.00 0.00 99 998.0
20260506100746 51 78 0.0 0.0 0.00 0.00 0.00 99 997.0
20260506095746 52 54 0.0 0.0 0.00 0.00 0.00 99 997.0
20260506094746 52 6 0.0 0.0 0.00 0.00 0.00 99 997.0
20260506093746 52 42 0.0 0.0 0.00 0.00 0.00 99 997.0
20260506092746 51 66 0.0 0.0 0.00 0.00 0.00 99 997.0
20260506091746 51 144 0.0 0.0 0.00 0.00 0.00 99 997.0
20260506090746 51 204 0.0 0.0 0.00 0.00 0.00 99 997.0
20260506085746 51 95 0.0 0.0 0.00 0.00 0.00 99 997.0
20260506084746 51 90 0.0 0.0 0.00 0.00 0.00 99 997.0
20260506083746 51 101 0.0 0.0 0.00 0.00 0.00 99 997.0
20260506082746 51 144 1.7 1.7 0.00 0.00 0.00 99 997.0
20260506081746 51 204 0.0 0.0 0.00 0.00 0.00 99 997.0
20260506080746 51 114 1.7 1.7 0.00 0.00 0.00 99 997.0
20260506072746 51 192 0.0 0.0 0.00 0.00 0.00 99 997.0
20260506071746 50 192 0.0 0.0 0.00 0.00 0.00 99 997.0
20260506070746 51 78 0.0 0.0 0.00 0.00 0.00 99 997.0
20260506061746 50 66 1.7 1.7 0.00 0.00 0.00 99 996.0
20260506060746 51 102 0.0 0.0 0.00 0.00 0.00 99 996.0
20260506050746 51 66 0.0 0.0 0.00 0.00 0.00 99 997.0
20260506044746 50 66 0.0 0.0 0.00 0.00 0.00 99 996.0
20260506043746 50 66 1.7 1.7 0.00 0.00 0.00 99 997.0
20260506042746 51 90 0.0 0.0 0.00 0.00 0.00 99 997.0